Victoria, TX

8:13 PM CDT on October 16, 2019 (GMT -0500)
Victoria Regional

Weather History for KVCT - September, 2019

Change the Weather History Date:

Wednesday, September 18, 2019

  Actual Average Record
Temperature  
Mean Temperature 86 °F 79 °F  
Max Temperature 96 °F 90 °F 103 °F (1912)
Min Temperature 76 °F 69 °F 51 °F (1903)
Degree Days  
Heating Degree Days 0 0  
Month to date heating degree days 0 0  
Since 1 July heating degree days 0 0  
Cooling Degree Days 21 14  
Month to date cooling degree days 366 293  
Year to date cooling degree days 3031 2646  
Growing Degree Days 36 (Base 50)    
Moisture  
Dew Point 75 °F    
Average Humidity 74    
Maximum Humidity 91    
Minimum Humidity 47    
Precipitation  
Precipitation 0.00 in 0.13 in 3.01 in (2010)
Month to date precipitation 2.86 2.65  
Year to date precipitation 18.54 29.52  
Snow  
Snow 0.00 in 0.00 in 0.00 in (2002)
Month to date snowfall 0.0 0.0  
Since 1 July snowfall 0.0 0.0  
Since 1 September snowfall 0.0 0.0  
Snow Depth 0.00 in    
Sea Level Pressure  
Sea Level Pressure 29.86 in    
Wind  
Wind Speed 6 mph ()    
Max Wind Speed 20 mph    
Max Gust Speed 26 mph    
Visibility 10.0 miles    
Events Thunderstorm    
T = Trace of Precipitation, MM = Missing Value Source: Averaged Metar Reports

Daily Weather History Graph

Daily Weather History Graph

Search for Another Location

Airport or City:

Astronomy

Sep. 18, 2019 Rise Set
Actual Time 7:14 AM CDT 7:29 PM CDT
Civil Twilight 6:50 AM CDT 7:52 PM CDT
Nautical Twilight 6:22 AM CDT 8:20 PM CDT
Astronomical Twilight 5:54 AM CDT 8:48 PM CDT
Moon 10:23 PM CDT (9/18) 11:00 AM CDT (9/18)
Length of Visible Light 13h 02m
Length of Day
12h 15m
Waning Gibbous, 82% of the Moon is Illuminated
Sep 18
Waning Gibbous
Sep 21
Last Quarter
Sep 28
New
Oct 5
First Quarter
Oct 13
Full

Hourly Weather History & Observations

Time (CDT) Temp. Heat Index Dew Point Humidity Pressure Visibility Wind Dir Wind Speed Gust Speed Precip Events Conditions
12:51 AM 78.1 °F - 73.9 °F 87% 29.87 in 10.0 mi WSW 6.9 mph - N/A   Mostly Cloudy
1:51 AM 78.1 °F - 73.9 °F 87% 29.86 in 10.0 mi West 5.8 mph - N/A   Partly Cloudy
2:28 AM 77.0 °F - 73.9 °F 90% 29.85 in 10.0 mi NNW 4.6 mph - N/A   Overcast
3:51 AM 77.0 °F - 73.0 °F 88% 29.83 in 10.0 mi West 8.1 mph - N/A   Partly Cloudy
4:51 AM 77.0 °F - 73.9 °F 90% 29.84 in 10.0 mi NW 3.5 mph - N/A   Clear
5:51 AM 78.1 °F - 73.9 °F 87% 29.86 in 10.0 mi WSW 4.6 mph - N/A   Mostly Cloudy
6:51 AM 78.1 °F - 73.9 °F 87% 29.88 in 10.0 mi West 4.6 mph - N/A   Clear
6:54 AM 78.1 °F - 73.9 °F 87% 29.88 in 10.0 mi West 4.6 mph - N/A   Partly Cloudy
7:51 AM 77.0 °F - 73.9 °F 90% 29.89 in 10.0 mi Calm Calm - N/A   Scattered Clouds
8:51 AM 79.0 °F - 75.0 °F 88% 29.91 in 10.0 mi Calm Calm - N/A   Partly Cloudy
9:51 AM 82.0 °F 89.4 °F 75.9 °F 82% 29.92 in 10.0 mi SW 6.9 mph - N/A   Partly Cloudy
10:51 AM 86.0 °F 95.1 °F 75.0 °F 70% 29.92 in 10.0 mi SW 11.5 mph - N/A   Partly Cloudy
11:51 AM 87.1 °F 96.3 °F 75.0 °F 67% 29.92 in 10.0 mi SW 8.1 mph - N/A   Partly Cloudy
12:51 PM 91.0 °F 101.6 °F 75.0 °F 59% 29.90 in 10.0 mi SW 10.4 mph - N/A   Clear
12:53 PM 91.0 °F 101.6 °F 75.0 °F 59% 29.90 in 10.0 mi SW 8.1 mph - N/A   Scattered Clouds
1:51 PM 93.0 °F 103.2 °F 73.9 °F 54% 29.87 in 10.0 mi SW 6.9 mph - N/A   Partly Cloudy
2:51 PM 95.0 °F 105.2 °F 73.9 °F 50% 29.84 in 10.0 mi South 9.2 mph - N/A   Scattered Clouds
3:51 PM 96.1 °F 105.6 °F 73.0 °F 47% 29.81 in 10.0 mi South 11.5 mph - N/A   Mostly Cloudy
4:21 PM 95.0 °F 104.5 °F 73.0 °F 49% 29.81 in 10.0 mi SSW 12.7 mph - N/A Thunderstorm Scattered Clouds
4:51 PM 88.0 °F 94.7 °F 72.0 °F 59% 29.83 in 10.0 mi NNW 17.3 mph 26.5 mph N/A Thunderstorm Scattered Clouds
5:25 PM 84.0 °F 91.2 °F 73.9 °F 72% 29.81 in 10.0 mi Variable 5.8 mph - N/A Thunderstorm Scattered Clouds
5:51 PM 86.0 °F 93.8 °F 73.9 °F 67% 29.82 in 10.0 mi East 9.2 mph - N/A   Scattered Clouds
6:51 PM 89.1 °F 100.2 °F 75.9 °F 65% 29.81 in 10.0 mi SSE 13.8 mph - N/A   Clear
7:51 PM 86.0 °F 96.0 °F 75.9 °F 72% 29.82 in 10.0 mi South 9.2 mph - N/A   Clear
8:51 PM 84.9 °F 95.3 °F 77.0 °F 77% 29.84 in 10.0 mi South 10.4 mph - N/A   Mostly Cloudy
9:51 PM 82.9 °F 91.8 °F 77.0 °F 82% 29.85 in 10.0 mi South 8.1 mph - N/A   Mostly Cloudy
10:51 PM 82.0 °F 90.2 °F 77.0 °F 85% 29.86 in 10.0 mi South 9.2 mph - N/A   Mostly Cloudy
11:51 PM 82.0 °F 90.2 °F 77.0 °F 85% 29.86 in 9.0 mi South 8.1 mph - N/A   Mostly Cloudy